Regional Weather Roundup
Issued by NWS Columbia, SC

Home | Current Version | Previous Version | Text Only | Print | Product List | Glossary On
Versions: 1 2 3 4 5 6 7 8 9 10 11 12 13 14 15 16 17 18 19 20 21 22 23 24 25 26 27 28 29 30 31 32 33 34 35 36 37 38 39 40 41 42 43 44 45 46 47 48 49 50
000
ASUS42 KCAE 201810
RWRCAE
REGIONAL WEATHER ROUNDUP
NATIONAL WEATHER SERVICE COLUMBIA SC
200 PM EDT SAT SEP 20 2014

NOTE: "FAIR" INDICATES FEW OR NO CLOUDS BELOW 12,000 FEET WITH NO
SIGNIFICANT WEATHER AND/OR OBSTRUCTIONS TO VISIBILITY.

NOT ALL STATIONS ARE QUALITY CONTROLLED BY THE NATIONAL
WEATHER SERVICE. USE DATA WITH CAUTION...ESPECIALLY
DEWPOINT OBSERVATIONS.

SCZ001>056-GAZ040-063>065-077-201900-
...UPSTATE SOUTH CAROLINA...

CITY           SKY/WX    TMP DP  RH WIND       PRES   REMARKS
ANDERSON       SUNNY     80  58  46 E8        30.13F
6HR MIN TEMP:  65; 6HR MAX TEMP:  80;

LIBERTY        FAIR      80  61  52 E6        30.15F
6HR MIN TEMP:  64; 6HR MAX TEMP:  80;

SPARTANBURG    FAIR      81  55  41 NE9       30.14F
CLEMSON        SUNNY     81  57  43 E7        30.15F
6HR MIN TEMP:  68; 6HR MAX TEMP:  81;

GREENVILLE     SUNNY     80  58  46 NE8       30.16F
6HR MIN TEMP:  64; 6HR MAX TEMP:  80;

GREENWOOD      SUNNY     82  59  45 NE10      30.14F
6HR MIN TEMP:  64; 6HR MAX TEMP:  82;

GREER          SUNNY     79  60  52 NE10G16   30.14F
6HR MIN TEMP:  63; 6HR MAX TEMP:  79;

ROCK HILL      SUNNY     80  58  46 NE6       30.14F
6HR MIN TEMP:  62; 6HR MAX TEMP:  80;

CHESTER        FAIR      82  54  36 NE13G18   30.18F
LAURENS        FAIR      79  50  36 NE8       30.14F


...CENTRAL SOUTH CAROLINA...

CITY           SKY/WX    TMP DP  RH WIND       PRES   REMARKS
COLUMBIA APT   PTSUNNY   82  58  43 NE13      30.09F
6HR MIN TEMP:  67; 6HR MAX TEMP:  83;

COLUMBIA OWENS MOSUNNY   81  59  47 NE9       30.10F
6HR MIN TEMP:  65; 6HR MAX TEMP:  81;

DARLINGTON     CLOUDY    79  61  53 N13       30.11F
6HR MIN TEMP:  63; 6HR MAX TEMP:  79;

FLORENCE       CLOUDY    77  61  57 N17G23    30.07F
6HR MIN TEMP:  63; 6HR MAX TEMP:  78;

MCENTIRE ANGB  PTSUNNY   77  62  58 N9        30.10F
6HR MIN TEMP:  64; 6HR MAX TEMP:  78;

ORANGEBURG     PTSUNNY   75  61  61 NE10      30.07F
6HR MIN TEMP:  64; 6HR MAX TEMP:  75;

SUMTER SHAW    CLOUDY    78  60  54 NE14      30.08F
6HR MIN TEMP:  63; 6HR MAX TEMP:  78;

NEWBERRY       FAIR      81  54  39 NE10      30.14F
AIKEN          FAIR      81  66  61 NE12G17   30.12F
BARNWELL       FAIR      79  64  61 NE15      30.08F
MANNING        FAIR      77  66  69 NE7G16    30.07F
CAMDEN         FAIR      77  59  53 N9        30.11F
LANCASTER      FAIR      81  57  44 NE12      30.13F
WINNSBORO      FAIR      81  57  44 NE14      30.11F


...EASTERN AND COASTAL SOUTH CAROLINA...

CITY           SKY/WX    TMP DP  RH WIND       PRES   REMARKS
MYRTLE BEACH   PTSUNNY   75  64  69 NE14G23   30.03F
N MYRTLE BCH   CLOUDY    76  66  71 N14       30.03F
6HR MIN TEMP:  67; 6HR MAX TEMP:  76;

CONWAY         FAIR      73  64  73 N8        30.05F
HARTSVILLE     FAIR      79  37  22 NE12      30.12F
FLORENCE       CLOUDY    77  61  57 N17G23    30.07F
6HR MIN TEMP:  63; 6HR MAX TEMP:  78;

DARLINGTON     CLOUDY    79  61  53 N13       30.11F
6HR MIN TEMP:  63; 6HR MAX TEMP:  79;

CHARLESTON APT CLOUDY    75  66  73 N13       30.02F
6HR MIN TEMP:  70; 6HR MAX TEMP:  75;

MOUNT PLEASANT FAIR      73  68  83 N8        30.02F
WALTERBORO     CLOUDY    75  66  73 N8G16     30.05F
BEAUFORT       CLOUDY    74  66  76 W13       30.02F
6HR MIN TEMP:  70; 6HR MAX TEMP:  74;



...EASTERN GEORGIA...

CITY           SKY/WX    TMP DP  RH WIND       PRES   REMARKS
AUGUSTA BUSH F MOSUNNY   82  61  48 NE10      30.07F
6HR MIN TEMP:  67; 6HR MAX TEMP:  84;

AUGUSTA DANIEL MOSUNNY   82  61  48 NE12G21   30.09F
6HR MIN TEMP:  67; 6HR MAX TEMP:  83;

THOMSON        SUNNY     83  69  64 NE10G16   30.14F
6HR MIN TEMP:  68; 6HR MAX TEMP:  83;

WASHINGTON     FAIR      84  66  54 NE10G17   30.11F
CLAXTON        MOCLDY    79  70  73 NE9G16    30.04F
SYLVANIA       CLOUDY    82  71  70 NE10G20   30.06F
6HR MIN TEMP:  71; 6HR MAX TEMP:  82;

STATESBORO     CLOUDY    77  68  72 NE10      30.04F
6HR MIN TEMP:  69; 6HR MAX TEMP:  77;

SAVANNAH       CLOUDY    76  66  71 N14G23    30.01F
6HR MIN TEMP:  72; 6HR MAX TEMP:  76; 6HR PCP: TRACE;



...SOUTHERN NORTH CAROLINA...

CITY           SKY/WX    TMP DP  RH WIND       PRES   REMARKS
CHARLOTTE      MOSUNNY   80  57  45 N12       30.15F
6HR MIN TEMP:  62; 6HR MAX TEMP:  80;

MONROE         SUNNY     80  57  45 NE10      30.13F
6HR MIN TEMP:  61; 6HR MAX TEMP:  81;

WADESBORO      MOCLDY    80  56  43 N7        30.12F
6HR MIN TEMP:  59; 6HR MAX TEMP:  80;

ROCKINGHAM     CLOUDY    77  59  53 NE7       30.11F
6HR MIN TEMP:  60; 6HR MAX TEMP:  77;

RUTHERFORDTON  SUNNY     78  56  47 E6        30.17F
6HR MIN TEMP:  62; 6HR MAX TEMP:  78;

ASHEVILLE      MOSUNNY   74  53  48 CALM      30.20F
6HR MIN TEMP:  62; 6HR MAX TEMP:  74;


$$


USA.gov is the U.S. government's official web portal to all federal, state and local government web resources and services.